Regional Weather Roundup
Issued by NWS Little Rock, AR

Home | Current Version | Previous Version | Text Only | Print | Product List | Glossary On
Versions: 1 2 3 4 5 6 7 8 9 10 11 12 13 14 15 16 17 18 19 20 21 22 23 24 25 26 27 28 29 30 31 32 33 34 35 36 37 38 39 40 41 42 43 44 45 46 47 48 49 50
385
ASUS44 KLZK 301812
RWRLZK

WEATHER ROUNDUP FOR ARKANSAS
NATIONAL WEATHER SERVICE LITTLE ROCK AR
100 PM CDT THU MAR 30 2017

NOTE: "FAIR" INDICATES FEW OR NO CLOUDS BELOW 12,000 FEET WITH NO
SIGNIFICANT WEATHER AND/OR OBSTRUCTIONS TO VISIBILITY.

ARZ001-003-010-029-301900-
NORTHWEST ARKANSAS

CITY           SKY/WX    TMP DP  RH WIND       PRES   REMARKS
FAYETTEVILLE   LGT RAIN  46  44  93 SW14      29.69S FOG
6HR MIN TEMP:  45; 6HR MAX TEMP:  48; 6HR PCP: TRACE;

FORT SMITH     CLOUDY    53  41  63 W15       29.72F
6HR MIN TEMP:  51; 6HR MAX TEMP:  53;

HARRISON       CLOUDY    50  40  68 SW9       29.66S
6HR MIN TEMP:  47; 6HR MAX TEMP:  50;

BENTONVILLE    CLOUDY    46  43  87 W15       29.68R
6HR MIN TEMP:  45; 6HR MAX TEMP:  46;

ROGERS         LGT RAIN  45  43  93 SW17      29.68R FOG
6HR MIN TEMP:  45; 6HR MAX TEMP:  47; 6HR PCP: TRACE;

SILOAM SPGS    CLOUDY    46  39  76 W18       29.68R
6HR MIN TEMP:  45; 6HR MAX TEMP:  48;

HIGHFILL       CLOUDY    47  43  86 SW14      29.67R
6HR MIN TEMP:  46; 6HR MAX TEMP:  47; 6HR PCP: TRACE;

SPRINGDALE     CLOUDY    46  45  93 SW12G22   29.70S FOG
$$

ARZ004-005-016-301900-
NORTH CENTRAL ARKANSAS

CITY           SKY/WX    TMP DP  RH WIND       PRES   REMARKS
BATESVILLE     CLOUDY    63  46  55 SW17G30   29.67R
6HR MIN TEMP:  55; 6HR MAX TEMP:  63; 6HR PCP:  0.05;

FLIPPIN        CLOUDY    54  37  54 SW10      29.64F
6HR MIN TEMP:  52; 6HR MAX TEMP:  57;

MTN HOME       CLOUDY    52  41  66 W12       29.65S
6HR MIN TEMP:  51; 6HR MAX TEMP:  58;

$$

ARZ040-041-301900-
WEST CENTRAL ARKANSAS

CITY           SKY/WX    TMP DP  RH WIND       PRES   REMARKS
MENA           CLOUDY    55  46  71 W12       29.74F
$$

ARZ009-017-025-026-028-301900-
NORTHEAST ARKANSAS

CITY           SKY/WX    TMP DP  RH WIND       PRES   REMARKS
JONESBORO      SUNNY     67  54  63 SW28G38   29.61F
6HR MIN TEMP:  64; 6HR MAX TEMP:  68; 6HR PCP:  0.02;

NEWPORT        MOSUNNY   66  51  58 W20G29    29.63F
6HR MIN TEMP:  62; 6HR MAX TEMP:  67;

WALNUT RIDGE   SUNNY     66  48  52 SW32G38   29.61S
6HR MIN TEMP:  63; 6HR MAX TEMP:  70; 6HR PCP:  0.01;

BLYTHEVILLE    CLOUDY    73  61  65 S21G37    29.61F
6HR MIN TEMP:  65; 6HR MAX TEMP:  73;

NW BLYTHEVILLE LGT RAIN  68  61  77 SW24G45   29.60F
$$

ARZ022-023-033-042-044-301900-
CENTRAL ARKANSAS

CITY           SKY/WX    TMP DP  RH WIND       PRES   REMARKS
LITTLE ROCK    PTSUNNY   60  45  57 SW20G29   29.72F
6HR MIN TEMP:  58; 6HR MAX TEMP:  63;

JACKSONVILLE   CLOUDY    61  46  57 SW20G25   29.70S
6HR MIN TEMP:  57; 6HR MAX TEMP:  63;

CONWAY           N/A     59  45  58 SW12      29.71F
SEARCY         CLOUDY    62  48  60 W9G21     29.69S
6HR MIN TEMP:  57; 6HR MAX TEMP:  64;

HOT SPRINGS    CLOUDY    57  44  62 SW9G20    29.74F
6HR MIN TEMP:  53; 6HR MAX TEMP:  59;

RUSSELLVILLE   CLOUDY    54  41  61 SW9       29.71F
6HR MIN TEMP:  51; 6HR MAX TEMP:  55;

$$

ARZ036-301900-
EAST ARKANSAS

CITY           SKY/WX    TMP DP  RH WIND       PRES   REMARKS
WEST MEMPHIS   CLOUDY    71  59  65 SW13G31   29.63S
6HR MIN TEMP:  64; 6HR MAX TEMP:  73;

$$

ARZ050-053-066-070-073-301900-
SOUTHWEST ARKANSAS

CITY           SKY/WX    TMP DP  RH WIND       PRES   REMARKS
ARKADELPHIA    CLOUDY    59  47  64 SW12      29.77F
6HR MIN TEMP:  53; 6HR MAX TEMP:  60;

CAMDEN         PTSUNNY   66  43  42 SW14      29.78F
TEXARKANA      CLOUDY    61  45  55 SW14      29.78F
6HR MIN TEMP:  51; 6HR MAX TEMP:  63;

EL DORADO      PTSUNNY   64  45  49 SW13G21   29.79F
6HR MIN TEMP:  55; 6HR MAX TEMP:  65;

DE QUEEN       CLOUDY    57  46  66 W13       29.76F
6HR MIN TEMP:  48; 6HR MAX TEMP:  57;

$$

ARZ056-057-069-301900-
SOUTHEAST ARKANSAS

CITY           SKY/WX    TMP DP  RH WIND       PRES   REMARKS
PINE BLUFF     SUNNY     67  46  47 SW16G24   29.72F
6HR MIN TEMP:  60; 6HR MAX TEMP:  67;

STUTTGART      SUNNY     66  45  45 SW25G31   29.70F
6HR MIN TEMP:  63; 6HR MAX TEMP:  66;

MONTICELLO       N/A     69  49  48 MISG      29.72F
6HR MIN TEMP:  61; 6HR MAX TEMP:  70;


$$






USA.gov is the U.S. government's official web portal to all federal, state and local government web resources and services.